GW1476 Weather Reports


time (UTC)temp
F
wind
direction
speed
knots
gust
knots
rain 1hr
in
rain 24hr
in
rain mn
in
humidity
%
barometer
mb
20260507163923 61 23 3.5 5.2 0.00 0.00 0.00 63 1015.9
20260507162722 64 180 2.6 3.5 0.00 0.00 0.00 63 1015.9
20260507162152 63 180 2.6 4.3 0.00 0.00 0.00 65 1015.9
20260507161555 64 180 4.3 4.3 0.00 0.00 0.00 62 1015.9
20260507160923 62 23 2.6 3.5 0.00 0.00 0.00 66 1016.2
20260507160346 60 45 1.7 3.5 0.00 0.00 0.00 67 1016.2
20260507155731 61 0 1.7 4.3 0.00 0.00 0.00 65 1016.2
20260507155123 60 0 1.7 1.7 0.00 0.00 0.00 66 1016.2
20260507154519 60 0 1.7 3.5 0.00 0.00 0.00 64 1016.2
20260507153911 60 270 1.7 3.5 0.00 0.00 0.00 68 1016.2
20260507153315 60 270 0.9 4.3 0.00 0.00 0.00 65 1016.2
20260507152750 60 0 3.5 4.3 0.00 0.00 0.00 67 1016.2
20260507151534 59 23 2.6 2.6 0.00 0.00 0.00 67 1016.2
20260507150347 59 270 0.9 2.6 0.00 0.00 0.00 71 1016.2
20260507145715 59 180 2.6 3.5 0.00 0.00 0.00 70 1016.2
20260507145111 59 0 1.7 2.6 0.00 0.00 0.00 69 1016.2
20260507144515 59 203 1.7 1.7 0.00 0.00 0.00 70 1016.2
20260507143939 59 203 2.6 3.5 0.00 0.00 0.00 70 1016.2
20260507143320 59 338 0.0 1.7 0.00 0.00 0.00 74 1016.2
20260507142123 58 23 2.6 2.6 0.00 0.00 0.00 75 1016.2
20260507141517 58 315 0.9 0.9 0.00 0.00 0.00 79 1016.5
20260507140926 57 248 0.9 2.6 0.00 0.00 0.00 81 1016.5
20260507140342 57 293 1.7 1.7 0.00 0.00 0.00 80 1016.5
20260507135143 56 225 0.0 0.9 0.00 0.00 0.00 81 1016.5
20260507134519 56 0 1.7 1.7 0.00 0.00 0.00 80 1016.5
20260507133319 56 0 0.9 1.7 0.00 0.00 0.00 88 1016.9
20260507132742 56 23 0.0 0.0 0.00 0.00 0.00 94 1016.9
20260507132122 56 225 0.0 0.0 0.00 0.00 0.00 94 1016.9
20260507130911 55 113 0.0 0.0 0.00 0.00 0.00 97 1016.9
20260507130311 54 203 0.0 0.0 0.00 0.00 0.00 97 1016.5
20260507124550 54 293 0.0 0.0 0.00 0.00 0.00 99 1016.9
20260507123943 53 270 0.0 0.0 0.00 0.00 0.00 99 1016.5
20260507123343 53 0 0.0 0.0 0.00 0.00 0.00 99 1016.5
20260507122748 53 225 0.0 0.0 0.00 0.00 0.00 99 1016.5
20260507122127 53 225 0.0 0.0 0.00 0.00 0.00 99 1016.5
20260507120340 52 180 0.0 0.0 0.00 0.00 0.00 99 1016.9
20260507115712 51 0 0.0 0.0 0.00 0.00 0.00 99 1016.9
20260507115146 51 270 0.0 0.0 0.00 0.00 0.00 99 1016.9
20260507114527 51 180 0.0 0.0 0.00 0.00 0.00 99 1016.5
20260507113916 51 203 0.0 0.0 0.00 0.00 0.00 99 1016.9
20260507113326 51 270 0.0 0.0 0.00 0.00 0.00 99 1016.9
20260507112752 51 225 0.0 0.0 0.00 0.00 0.00 99 1016.9
20260507111513 50 270 0.0 0.0 0.00 0.00 0.00 99 1016.5
20260507110940 50 270 0.0 0.0 0.00 0.00 0.00 99 1016.2
20260507110320 50 338 0.0 0.0 0.00 0.00 0.00 99 1016.2
20260507105717 50 45 0.0 0.0 0.00 0.00 0.00 99 1016.2
20260507105143 50 23 0.0 0.0 0.00 0.00 0.00 99 1016.2
20260507104546 50 23 0.0 0.0 0.00 0.00 0.00 99 1016.2
20260507103320 50 45 0.0 0.0 0.00 0.00 0.00 99 1016.2
20260507102729 50 338 0.0 0.0 0.00 0.00 0.00 99 1016.2
20260507101525 50 270 0.0 0.0 0.00 0.00 0.00 99 1015.5
20260507100912 50 180 0.0 0.0 0.00 0.00 0.00 99 1015.5
20260507100332 51 270 0.0 0.0 0.00 0.00 0.00 99 1015.5
20260507095740 51 270 0.0 0.0 0.00 0.00 0.00 99 1015.5
20260507095110 51 338 0.0 0.0 0.00 0.00 0.00 99 1015.5
20260507093930 51 225 0.0 0.0 0.00 0.00 0.00 99 1015.9
20260507093344 51 270 0.0 0.0 0.00 0.00 0.00 99 1015.9
20260507092744 51 270 0.0 0.0 0.00 0.00 0.00 99 1016.2
20260507092130 50 270 0.0 0.0 0.00 0.00 0.00 99 1016.2
20260507091510 50 338 0.0 0.0 0.00 0.00 0.00 99 1015.9
20260507090939 50 0 0.0 0.0 0.00 0.00 0.00 99 1016.2
20260507090318 51 45 0.0 0.0 0.00 0.00 0.00 99 1016.2
20260507085715 51 315 0.0 0.0 0.00 0.00 0.00 99 1015.9
20260507085109 51 338 0.0 0.0 0.00 0.00 0.00 99 1015.9
20260507084541 51 23 0.0 0.0 0.00 0.00 0.00 99 1015.9
20260507083925 51 225 0.0 0.0 0.00 0.00 0.00 99 1015.5
20260507083327 51 23 0.0 0.0 0.00 0.00 0.00 99 1015.5
20260507082121 52 203 0.0 0.0 0.00 0.00 0.00 99 1015.9
20260507081530 52 225 0.0 0.0 0.00 0.00 0.00 99 1015.9
20260507080917 52 248 0.0 0.0 0.00 0.00 0.00 99 1015.9
20260507080337 52 203 0.0 0.0 0.00 0.00 0.00 99 1015.9
20260507075716 52 180 0.0 0.0 0.00 0.00 0.00 99 1015.9
20260507075135 52 23 0.0 0.0 0.00 0.00 0.00 99 1016.2
20260507074541 52 0 0.0 0.0 0.00 0.00 0.00 99 1015.9
20260507073952 52 315 0.0 0.0 0.00 0.00 0.00 99 1015.9
20260507073328 52 0 0.0 0.0 0.00 0.00 0.00 99 1015.9
20260507072748 52 270 0.0 0.0 0.00 0.00 0.00 99 1015.9
20260507072116 52 23 1.7 1.7 0.00 0.00 0.00 99 1015.9
20260507071537 52 203 0.0 0.0 0.00 0.00 0.00 99 1015.5
20260507070310 52 293 0.0 0.0 0.00 0.00 0.00 99 1015.9
20260507065753 53 270 0.0 0.0 0.00 0.00 0.00 99 1015.9
20260507064514 53 180 0.0 0.0 0.00 0.00 0.00 99 1015.9
20260507063913 53 203 0.0 0.0 0.00 0.00 0.00 99 1015.9
20260507063347 53 203 0.0 0.0 0.00 0.00 0.00 99 1015.9
20260507062716 53 203 0.0 0.0 0.00 0.00 0.00 99 1015.9
20260507062130 53 180 0.0 0.0 0.00 0.00 0.00 99 1015.9
20260507061517 53 0 1.7 1.7 0.00 0.00 0.00 99 1016.2
20260507060928 53 23 0.0 0.0 0.00 0.00 0.00 99 1016.2
20260507060317 53 45 0.0 0.0 0.00 0.00 0.00 99 1016.2
20260507055734 53 338 0.0 1.7 0.00 0.00 0.00 99 1016.2
20260507055110 53 338 0.0 0.0 0.00 0.00 0.00 99 1015.9
20260507053926 53 0 2.6 2.6 0.00 0.00 0.00 99 1016.2
20260507052712 54 23 0.0 0.0 0.00 0.00 0.00 99 1016.2
20260507052147 54 23 1.7 1.7 0.00 0.00 0.00 99 1016.2
20260507051524 54 0 0.0 0.9 0.00 0.00 0.00 99 1016.2
20260507050911 54 293 0.0 1.7 0.00 0.00 0.00 99 1016.2
20260507050342 54 293 0.0 0.0 0.00 0.00 0.00 99 1016.2
20260507045750 54 23 0.0 0.0 0.00 0.00 0.00 99 1016.2
20260507045142 54 315 0.0 0.0 0.00 0.00 0.00 99 1016.2
20260507044539 54 293 0.0 0.0 0.00 0.00 0.00 99 1016.2
20260507043954 54 23 0.0 0.0 0.00 0.00 0.00 99 1016.2
20260507041541 54 270 0.0 0.0 0.00 0.00 0.00 99 1016.2
20260507040932 54 270 0.0 0.0 0.00 0.00 0.00 99 1016.2
20260507040332 54 0 0.0 0.0 0.00 0.00 0.00 99 1015.9
20260507035713 55 45 0.0 0.0 0.00 0.00 0.70 99 1016.2
20260507035145 54 270 0.0 0.0 0.00 0.00 0.70 99 1016.2
20260507034518 55 225 0.0 0.0 0.00 0.00 0.70 99 1015.9
20260507033911 54 225 0.0 0.0 0.00 0.00 0.70 99 1015.9
20260507033343 54 225 0.0 0.0 0.00 0.00 0.70 99 1015.9
20260507032121 54 270 0.0 0.0 0.00 0.00 0.70 99 1015.5
20260507030950 55 203 0.0 0.0 0.00 0.00 0.70 99 1015.5
20260507030351 55 248 0.0 0.0 0.00 0.00 0.70 99 1015.9
20260507025726 55 248 0.0 0.0 0.00 0.00 0.70 99 1015.9
20260507024540 55 0 0.0 0.0 0.00 0.00 0.70 99 1016.2
20260507023911 55 45 0.0 0.0 0.00 0.00 0.70 99 1016.2
20260507023354 55 23 1.7 1.7 0.00 0.00 0.70 99 1016.2
20260507022710 55 158 0.0 0.9 0.00 0.00 0.70 99 1015.5
20260507022117 55 338 0.0 0.0 0.00 0.00 0.70 99 1016.2
20260507021541 55 225 0.0 1.7 0.00 0.00 0.70 99 1015.9
20260507020939 55 225 0.0 0.9 0.00 0.00 0.69 99 1016.9
20260507020318 55 338 0.0 2.6 0.00 0.00 0.69 99 1017.2
20260507015728 55 68 1.7 1.7 0.00 0.00 0.69 99 1016.9
20260507015145 55 180 0.0 0.0 0.00 0.00 0.69 99 1015.5
20260507014513 55 180 0.0 0.9 0.00 0.00 0.69 99 1015.9
20260507013930 55 248 0.0 0.0 0.00 0.00 0.69 99 1016.2
20260507013354 55 0 0.9 1.7 0.00 0.00 0.69 99 1016.2
20260507012144 55 270 0.0 0.0 0.00 0.00 0.69 99 1014.5
20260507011532 55 180 0.9 1.7 0.00 0.00 0.69 99 1014.9
20260507010953 55 180 0.0 0.9 0.00 0.00 0.69 99 1015.2
20260507010329 55 45 0.0 0.9 0.00 0.00 0.69 99 1015.2
20260507005135 55 23 0.0 0.0 0.00 0.00 0.69 99 1015.5
20260507004543 55 0 1.7 2.6 0.00 0.00 0.69 99 1015.5
20260507003344 55 203 0.0 0.0 0.00 0.00 0.69 99 1013.8
20260507002728 55 180 0.9 0.9 0.00 0.00 0.69 99 1014.2
20260507001548 56 203 0.0 0.0 0.00 0.00 0.69 99 1014.9
20260507000314 56 338 0.0 0.0 0.00 0.00 0.69 99 1015.2
20260506235728 56 338 0.0 0.0 0.00 0.00 0.69 99 1015.2
20260506235133 56 23 1.7 1.7 0.00 0.00 0.69 99 1014.9
20260506234523 56 248 1.7 1.7 0.00 0.00 0.69 99 1014.5
20260506233939 56 0 0.0 0.0 0.00 0.00 0.69 99 1014.5
20260506233351 56 293 0.0 0.0 0.00 0.00 0.69 99 1014.5
20260506232743 56 180 0.0 0.0 0.00 0.00 0.69 99 1014.5
20260506232149 56 248 0.0 0.0 0.00 0.00 0.69 99 1014.9
20260506231525 56 203 0.0 0.0 0.00 0.00 0.69 99 1014.5
20260506230932 56 270 0.0 0.0 0.00 0.00 0.69 99 1014.9
20260506230329 56 0 0.0 0.0 0.00 0.00 0.68 99 1015.2
20260506225711 56 248 0.0 0.0 0.00 0.00 0.68 99 1015.2
20260506225110 56 0 0.0 0.9 0.00 0.00 0.68 99 1014.9
20260506224517 56 338 0.9 1.7 0.00 0.00 0.64 99 1014.9
20260506223932 56 23 0.0 0.9 0.00 0.00 0.64 99 1015.2
20260506223327 57 45 0.9 1.7 0.00 0.00 0.64 99 1014.9
20260506222722 57 180 0.0 0.0 0.00 0.00 0.63 99 1014.9
20260506222144 57 338 0.0 1.7 0.00 0.00 0.62 99 1014.5
20260506221515 57 23 0.0 1.7 0.00 0.00 0.62 99 1014.2
20260506220917 57 225 0.0 1.7 0.00 0.00 0.57 99 1014.2
20260506220343 58 315 0.9 1.7 0.00 0.00 0.52 99 1014.5
20260506215738 58 0 1.7 1.7 0.00 0.00 0.52 99 1014.2
20260506215141 58 338 0.0 0.9 0.00 0.00 0.52 99 1014.5
20260506214549 58 45 1.7 1.7 0.00 0.00 0.52 99 1014.5
20260506213317 58 23 1.7 1.7 0.00 0.00 0.52 99 1014.2
20260506212713 58 203 1.7 1.7 0.00 0.00 0.52 99 1014.2
20260506212127 58 0 0.9 1.7 0.00 0.00 0.52 99 1014.5
20260506210929 58 45 0.0 1.7 0.00 0.00 0.51 99 1014.5
20260506210347 57 45 1.7 1.7 0.00 0.00 0.51 99 1014.5
20260506204531 57 23 1.7 2.6 0.00 0.00 0.51 99 1014.2
20260506203311 57 23 4.3 4.3 0.00 0.00 0.51 99 1014.2
20260506202713 57 45 3.5 3.5 0.00 0.00 0.51 99 1014.2
20260506201533 57 0 2.6 2.6 0.00 0.00 0.50 99 1014.5
20260506200314 57 23 3.5 4.3 0.00 0.00 0.50 99 1014.2
20260506195752 57 0 3.5 3.5 0.00 0.00 0.50 99 1014.2
20260506194536 57 23 2.6 3.5 0.00 0.00 0.50 99 1014.2
20260506193953 57 23 0.9 1.7 0.00 0.00 0.50 99 1014.2
20260506193353 57 0 2.6 2.6 0.00 0.00 0.49 99 1013.8
20260506192743 57 338 1.7 1.7 0.00 0.00 0.49 99 1013.8
20260506192132 57 23 1.7 4.3 0.00 0.00 0.49 99 1013.5
20260506191543 57 0 2.6 4.3 0.00 0.00 0.49 99 1013.8
20260506190913 57 315 5.2 5.2 0.00 0.00 0.49 99 1013.5
20260506190340 57 248 1.7 5.2 0.00 0.00 0.49 99 1013.5
20260506185719 57 293 1.7 1.7 0.00 0.00 0.49 99 1013.8
20260506184536 58 23 3.5 4.3 0.00 0.00 0.49 99 1013.5
20260506183920 58 23 2.6 4.3 0.00 0.00 0.49 99 1013.5
20260506183330 58 23 4.3 4.3 0.00 0.00 0.49 99 1013.5
20260506182740 58 23 2.6 3.5 0.00 0.00 0.49 99 1013.5
20260506181541 58 23 3.5 4.3 0.00 0.00 0.49 99 1013.5
20260506180936 58 0 3.5 5.2 0.00 0.00 0.48 99 1013.5
20260506180354 59 315 1.7 3.5 0.00 0.00 0.48 99 1013.5
20260506175748 59 315 3.5 4.3 0.00 0.00 0.47 99 1013.2
20260506175127 59 203 1.7 1.7 0.00 0.00 0.47 99 1013.2
20260506174531 59 23 1.7 2.6 0.00 0.00 0.46 99 1013.2
20260506173943 59 0 1.7 6.1 0.00 0.00 0.46 99 1013.2
20260506173318 60 23 5.2 5.2 0.00 0.00 0.46 99 1013.2
20260506172712 59 45 2.6 2.6 0.00 0.00 0.46 99 1013.2
20260506172141 60 0 1.7 4.3 0.00 0.00 0.46 99 1013.2
20260506170953 60 338 2.6 6.1 0.00 0.00 0.46 99 1012.8
20260506170310 60 23 8.7 8.7 0.00 0.00 0.46 99 1012.8